2016-04-22 00:01:11 r, 17.76m,0000000007Hz,0000066318c,0000000.144s, 018.6C,00002195
2016-04-22 00:11:11 r, 17.76m,0000000007Hz,0000066127c,0000000.144s, 018.6C,00002195
2016-04-22 00:21:11 r, 17.75m,0000000007Hz,0000065284c,0000000.142s, 018.3C,00002195
2016-04-22 00:31:11 r, 17.74m,0000000007Hz,0000065157c,0000000.141s, 018.3C,00002195
2016-04-22 00:41:14 r, 17.73m,0000000007Hz,0000064320c,0000000.140s, 018.3C,00002195
2016-04-22 00:51:11 r, 17.73m,0000000007Hz,0000064268c,0000000.139s, 018.0C,00002195
2016-04-22 01:01:11 r, 17.73m,0000000007Hz,0000064371c,0000000.140s, 018.0C,00002195
2016-04-22 01:11:13 r, 17.73m,0000000007Hz,0000064376c,0000000.140s, 017.7C,00002195
2016-04-22 01:21:11 r, 17.73m,0000000007Hz,0000064298c,0000000.140s, 017.7C,00002195
2016-04-22 01:31:11 r, 17.74m,0000000007Hz,0000064989c,0000000.141s, 017.7C,00002195
2016-04-22 01:41:12 r, 17.73m,0000000007Hz,0000064360c,0000000.140s, 017.4C,00002195
2016-04-22 01:51:11 r, 17.73m,0000000007Hz,0000064421c,0000000.140s, 017.4C,00002195
2016-04-22 02:01:11 r, 17.75m,0000000008Hz,0000065447c,0000000.142s, 017.0C,00002195
2016-04-22 02:11:12 r, 17.74m,0000000007Hz,0000065253c,0000000.142s, 017.0C,00002195
2016-04-22 02:21:11 r, 17.75m,0000000007Hz,0000065287c,0000000.142s, 017.0C,00002195
2016-04-22 02:31:11 r, 17.74m,0000000008Hz,0000064514c,0000000.140s, 016.7C,00002195
2016-04-22 02:41:11 r, 17.74m,0000000007Hz,0000064522c,0000000.140s, 016.7C,00002195
2016-04-22 02:51:11 r, 17.74m,0000000007Hz,0000064399c,0000000.140s, 016.4C,00002195
2016-04-22 03:01:12 r, 17.74m,0000000007Hz,0000064389c,0000000.140s, 016.4C,00002195
2016-04-22 03:11:14 r, 17.76m,0000000007Hz,0000066028c,0000000.143s, 016.4C,00002195
2016-04-22 03:21:12 r, 17.76m,0000000007Hz,0000066322c,0000000.144s, 016.4C,00002195
2016-04-22 03:31:11 r, 17.78m,0000000007Hz,0000067154c,0000000.146s, 016.4C,00002195
2016-04-22 03:41:12 r, 17.76m,0000000007Hz,0000066551c,0000000.144s, 016.4C,00002195
2016-04-22 03:51:12 r, 17.78m,0000000006Hz,0000067289c,0000000.146s, 016.4C,00002195
2016-04-22 04:01:11 r, 17.80m,0000000007Hz,0000068309c,0000000.148s, 016.1C,00002195
2016-04-22 04:11:13 r, 17.82m,0000000007Hz,0000070064c,0000000.152s, 016.1C,00002195
2016-04-22 04:21:11 r, 17.81m,0000000007Hz,0000069177c,0000000.150s, 016.1C,00002195
2016-04-22 04:31:11 r, 17.80m,0000000007Hz,0000068179c,0000000.148s, 016.1C,00002195
2016-04-22 04:41:11 r, 17.84m,0000000007Hz,0000071128c,0000000.154s, 016.1C,00002195
2016-04-22 04:51:12 r, 17.85m,0000000007Hz,0000071949c,0000000.156s, 016.1C,00002195
2016-04-22 05:01:11 r, 17.79m,0000000007Hz,0000068063c,0000000.148s, 016.1C,00002195
2016-04-22 05:11:14 r, 17.56m,0000000008Hz,0000054718c,0000000.119s, 016.1C,00002195
2016-04-22 05:21:12 r, 16.99m,0000000014Hz,0000032394c,0000000.070s, 016.1C,00002195
2016-04-22 05:31:11 r, 15.89m,0000000039Hz,0000011847c,0000000.026s, 016.1C,00002195
2016-04-22 05:41:11 r, 14.13m,0000000198Hz,0000000000c,0000000.000s, 015.7C,00002195
2016-04-22 05:51:11 r, 12.24m,0000001143Hz,0000000000c,0000000.000s, 016.1C,00002195
2016-04-22 06:01:11 r, 10.40m,0000006146Hz,0000000000c,0000000.000s, 016.1C,00002195
2016-04-22 06:11:13 r, 08.74m,0000028434Hz,0000000000c,0000000.000s, 016.1C,00002195
2016-04-22 06:21:12 r, 07.45m,0000093504Hz,0000000000c,0000000.000s, 016.1C,00002195
2016-04-22 06:31:11 r, 06.66m,0000192860Hz,0000000000c,0000000.000s, 016.4C,00002195
2016-04-22 06:41:13 r, 06.02m,0000349373Hz,0000000000c,0000000.000s, 016.4C,00002195
2016-04-22 06:51:12 r, 00.00m,0000453081Hz,0000000000c,0000000.000s, 016.7C,00002195
2016-04-22 07:01:11 r, 00.00m,0000562523Hz,0000000000c,0000000.000s, 017.0C,00002195
2016-04-22 07:11:14 r, 00.00m,0000562656Hz,0000000000c,0000000.000s, 017.4C,00002195
2016-04-22 07:21:12 r, 00.00m,0000562689Hz,0000000000c,0000000.000s, 017.7C,00002195
2016-04-22 07:31:11 r, 00.00m,0000562791Hz,0000000000c,0000000.000s, 018.0C,00002195
2016-04-22 07:41:11 r, 00.00m,0000562840Hz,0000000000c,0000000.000s, 018.6C,00002195
2016-04-22 07:51:13 r, 00.00m,0000562743Hz,0000000000c,0000000.000s, 018.3C,00002195
2016-04-22 08:01:11 r, 00.00m,0000562789Hz,0000000000c,0000000.000s, 018.3C,00002195
2016-04-22 08:11:12 r, 00.00m,0000562868Hz,0000000000c,0000000.000s, 019.3C,00002195
2016-04-22 08:21:12 r, 00.00m,0000563025Hz,0000000000c,0000000.000s, 019.9C,00002195
2016-04-22 08:31:11 r, 00.00m,0000563175Hz,0000000000c,0000000.000s, 020.9C,00002195
2016-04-22 08:41:11 r, 00.00m,0000563244Hz,0000000000c,0000000.000s, 021.5C,00002195
2016-04-22 08:51:14 r, 00.00m,0000563310Hz,0000000000c,0000000.000s, 022.2C,00002195
2016-04-22 09:01:11 r, 00.00m,0000563439Hz,0000000000c,0000000.000s, 022.8C,00002195
2016-04-22 09:11:12 r, 00.00m,0000563420Hz,0000000000c,0000000.000s, 023.2C,00002195
2016-04-22 09:21:14 r, 00.00m,0000563500Hz,0000000000c,0000000.000s, 023.5C,00002195
2016-04-22 09:31:11 r, 00.00m,0000563627Hz,0000000000c,0000000.000s, 024.1C,00002195
2016-04-22 09:41:12 r, 00.00m,0000563662Hz,0000000000c,0000000.000s, 024.1C,00002195
2016-04-22 09:51:12 r, 00.00m,0000563600Hz,0000000000c,0000000.000s, 025.1C,00002195
2016-04-22 10:01:11 r, 00.00m,0000563707Hz,0000000000c,0000000.000s, 025.1C,00002195
2016-04-22 10:11:11 r, 00.00m,0000563784Hz,0000000000c,0000000.000s, 026.1C,00002195
2016-04-22 10:21:13 r, 00.00m,0000563984Hz,0000000000c,0000000.000s, 027.7C,00002195
2016-04-22 10:31:11 r, 00.00m,0000564218Hz,0000000000c,0000000.000s, 029.3C,00002195
2016-04-22 10:41:11 r, 00.00m,0000564273Hz,0000000000c,0000000.000s, 029.9C,00002195
2016-04-22 10:51:14 r, 00.00m,0000564276Hz,0000000000c,0000000.000s, 030.6C,00002195
2016-04-22 11:01:11 r, 00.00m,0000564295Hz,0000000000c,0000000.000s, 030.6C,00002195
2016-04-22 11:11:11 r, 00.00m,0000564272Hz,0000000000c,0000000.000s, 030.9C,00002195
2016-04-22 11:21:14 r, 00.00m,0000564510Hz,0000000000c,0000000.000s, 031.5C,00002195
2016-04-22 11:31:11 r, 00.00m,0000564392Hz,0000000000c,0000000.000s, 031.5C,00002195
2016-04-22 11:41:14 r, 00.00m,0000564379Hz,0000000000c,0000000.000s, 030.9C,00002195
2016-04-22 11:51:11 r, 00.00m,0000564472Hz,0000000000c,0000000.000s, 031.9C,00002195
2016-04-22 12:01:12 r, 00.00m,0000564543Hz,0000000000c,0000000.000s, 032.2C,00002195
2016-04-22 12:11:12 r, 00.00m,0000564632Hz,0000000000c,0000000.000s, 033.1C,00002195
2016-04-22 12:21:11 r, 00.00m,0000564670Hz,0000000000c,0000000.000s, 033.8C,00002195
2016-04-22 12:31:12 r, 00.00m,0000564564Hz,0000000000c,0000000.000s, 033.5C,00002195
2016-04-22 12:41:12 r, 00.00m,0000564609Hz,0000000000c,0000000.000s, 032.8C,00002195
2016-04-22 12:51:12 r, 00.00m,0000564692Hz,0000000000c,0000000.000s, 034.1C,00002195
2016-04-22 13:01:12 r, 00.00m,0000564743Hz,0000000000c,0000000.000s, 035.1C,00002195
2016-04-22 13:11:12 r, 00.00m,0000564681Hz,0000000000c,0000000.000s, 035.1C,00002195
2016-04-22 13:21:14 r, 00.00m,0000564880Hz,0000000000c,0000000.000s, 036.4C,00002195
2016-04-22 13:31:12 r, 00.00m,0000564864Hz,0000000000c,0000000.000s, 036.0C,00002195
2016-04-22 13:41:14 r, 00.00m,0000564680Hz,0000000000c,0000000.000s, 035.4C,00002195
2016-04-22 13:51:12 r, 00.00m,0000564820Hz,0000000000c,0000000.000s, 035.7C,00002195
2016-04-22 14:01:12 r, 00.00m,0000564877Hz,0000000000c,0000000.000s, 036.7C,00002195
2016-04-22 14:11:12 r, 00.00m,0000564797Hz,0000000000c,0000000.000s, 036.4C,00002195
2016-04-22 14:21:12 r, 00.00m,0000564748Hz,0000000000c,0000000.000s, 036.0C,00002195
2016-04-22 14:31:12 r, 00.00m,0000564709Hz,0000000000c,0000000.000s, 035.1C,00002195
2016-04-22 14:41:12 r, 00.00m,0000564949Hz,0000000000c,0000000.000s, 036.7C,00002195
2016-04-22 14:51:13 r, 00.00m,0000564586Hz,0000000000c,0000000.000s, 034.8C,00002195
2016-04-22 15:01:12 r, 00.00m,0000564404Hz,0000000000c,0000000.000s, 033.1C,00002195
2016-04-22 15:11:12 r, 00.00m,0000564326Hz,0000000000c,0000000.000s, 032.5C,00002195
2016-04-22 15:21:12 r, 00.00m,0000564199Hz,0000000000c,0000000.000s, 031.5C,00002195
2016-04-22 15:31:12 r, 00.00m,0000564306Hz,0000000000c,0000000.000s, 031.5C,00002195
2016-04-22 15:41:12 r, 00.00m,0000564219Hz,0000000000c,0000000.000s, 031.5C,00002195
2016-04-22 15:51:14 r, 00.00m,0000564313Hz,0000000000c,0000000.000s, 031.9C,00002195
2016-04-22 16:01:12 r, 00.00m,0000564173Hz,0000000000c,0000000.000s, 031.5C,00002195
2016-04-22 16:11:12 r, 00.00m,0000564274Hz,0000000000c,0000000.000s, 031.5C,00002195
2016-04-22 16:21:12 r, 00.00m,0000564196Hz,0000000000c,0000000.000s, 030.9C,00002195
2016-04-22 16:31:12 r, 00.00m,0000564018Hz,0000000000c,0000000.000s, 029.9C,00002195
2016-04-22 16:41:12 r, 00.00m,0000563942Hz,0000000000c,0000000.000s, 029.0C,00002195
2016-04-22 16:51:12 r, 00.00m,0000563839Hz,0000000000c,0000000.000s, 028.3C,00002195
2016-04-22 17:01:12 r, 00.00m,0000563738Hz,0000000000c,0000000.000s, 028.0C,00002195
2016-04-22 17:11:12 r, 00.00m,0000563686Hz,0000000000c,0000000.000s, 027.7C,00002195
2016-04-22 17:21:12 r, 00.00m,0000563768Hz,0000000000c,0000000.000s, 027.3C,00002195
2016-04-22 17:31:12 r, 00.00m,0000563633Hz,0000000000c,0000000.000s, 027.0C,00002195
2016-04-22 17:41:12 r, 00.00m,0000563604Hz,0000000000c,0000000.000s, 027.0C,00002195
2016-04-22 17:51:12 r, 00.00m,0000563687Hz,0000000000c,0000000.000s, 027.0C,00002195
2016-04-22 18:01:12 r, 00.00m,0000563632Hz,0000000000c,0000000.000s, 026.4C,00002195
2016-04-22 18:11:12 r, 00.00m,0000563559Hz,0000000000c,0000000.000s, 026.4C,00002195
2016-04-22 18:21:12 r, 00.00m,0000563395Hz,0000000000c,0000000.000s, 025.4C,00002195
2016-04-22 18:31:12 r, 00.00m,0000563408Hz,0000000000c,0000000.000s, 025.4C,00002195
2016-04-22 18:41:12 r, 00.00m,0000563343Hz,0000000000c,0000000.000s, 024.8C,00002195
2016-04-22 18:51:12 r, 00.00m,0000563310Hz,0000000000c,0000000.000s, 024.8C,00002195
2016-04-22 19:01:12 r, 00.00m,0000563257Hz,0000000000c,0000000.000s, 024.4C,00002195
2016-04-22 19:11:12 r, 00.00m,0000563240Hz,0000000000c,0000000.000s, 024.1C,00002195
2016-04-22 19:21:12 r, 00.00m,0000563224Hz,0000000000c,0000000.000s, 023.8C,00002195
2016-04-22 19:31:12 r, 00.00m,0000459725Hz,0000000000c,0000000.000s, 023.8C,00002195
2016-04-22 19:41:12 r, 06.57m,0000210147Hz,0000000000c,0000000.000s, 023.5C,00002195
2016-04-22 19:51:12 r, 06.53m,0000217710Hz,0000000000c,0000000.000s, 023.2C,00002195
2016-04-22 20:01:12 r, 07.24m,0000113082Hz,0000000000c,0000000.000s, 022.8C,00002195
2016-04-22 20:11:12 r, 07.58m,0000083167Hz,0000000000c,0000000.000s, 022.8C,00002195
2016-04-22 20:21:14 r, 07.64m,0000077838Hz,0000000000c,0000000.000s, 022.5C,00002195
2016-04-22 20:31:12 r, 08.15m,0000048821Hz,0000000000c,0000000.000s, 022.2C,00002195
2016-04-22 20:41:12 r, 09.38m,0000015744Hz,0000000000c,0000000.000s, 021.9C,00002195
2016-04-22 20:51:12 r, 10.71m,0000004616Hz,0000000000c,0000000.000s, 021.5C,00002195
2016-04-22 21:01:12 r, 12.48m,0000000911Hz,0000000000c,0000000.000s, 021.5C,00002195
2016-04-22 21:11:12 r, 14.09m,0000000205Hz,0000000000c,0000000.000s, 021.5C,00002195
2016-04-22 21:21:12 r, 15.07m,0000000083Hz,0000005566c,0000000.012s, 021.9C,00002195
2016-04-22 21:31:12 r, 15.71m,0000000046Hz,0000010018c,0000000.022s, 021.9C,00002195
2016-04-22 21:41:12 r, 15.90m,0000000039Hz,0000011910c,0000000.026s, 021.9C,00002195
2016-04-22 21:51:13 r, 15.69m,0000000047Hz,0000009812c,0000000.021s, 022.2C,00002195
2016-04-22 22:01:14 r, 15.69m,0000000046Hz,0000009846c,0000000.021s, 022.2C,00002195
2016-04-22 22:11:12 r, 15.72m,0000000044Hz,0000010159c,0000000.022s, 022.2C,00002195
2016-04-22 22:21:14 r, 15.79m,0000000042Hz,0000010753c,0000000.023s, 022.2C,00002195
2016-04-22 22:31:13 r, 15.59m,0000000051Hz,0000009005c,0000000.020s, 022.2C,00002195
2016-04-22 22:41:12 r, 15.87m,0000000040Hz,0000011531c,0000000.025s, 022.2C,00002195
2016-04-22 22:51:13 r, 15.76m,0000000044Hz,0000010554c,0000000.023s, 022.2C,00002195
2016-04-22 23:01:13 r, 15.84m,0000000040Hz,0000011312c,0000000.025s, 022.2C,00002195
2016-04-22 23:11:12 r, 15.57m,0000000052Hz,0000008889c,0000000.019s, 022.2C,00002195
2016-04-22 23:21:13 r, 15.39m,0000000062Hz,0000007471c,0000000.016s, 022.2C,00002195
2016-04-22 23:31:12 r, 15.36m,0000000063Hz,0000007253c,0000000.016s, 022.2C,00002195
2016-04-22 23:41:12 r, 15.35m,0000000063Hz,0000007205c,0000000.016s, 021.9C,00002195
2016-04-22 23:51:12 r, 15.38m,0000000062Hz,0000007367c,0000000.016s, 021.9C,00002195
